Other Public Products
Issued by NWS Charleston, SC

Current Version | Previous Version | Graphics & Text | Print | Product List | Glossary On
Versions: 1 2 3 4 5 6 7 8 9 10 11 12 13 14 15 16 17 18 19 20 21 22 23 24 25 26 27 28 29 30 31 32 33 34 35 36 37 38 39 40 41 42 43 44 45 46 47 48 49 50
000
FPUS82 KCHS 122027
OPUCHS

TEST...KCHS/KSAV Gateway Observations...TEST
National Weather Service Charleston SC
300 PM EST TUE DEC 12 2017

NOTE: "fair" indicates few or no clouds below 12,000 feet with no
significant weather and/or obstructions to visibility.

SCZ050-WAZ558-NCZ071-TXZ119-213-PAZ071-DCZ001-FLZ074-172-MI076-
NYZ176-178-MAZ016-IL014-TNZ027-NJZ106-GAZ044-MD014-122100-

...Gateway Observations for Charleston International...

CITY           SKY/WX    TMP DP  RH WIND       PRES   REMARKS
Chas Airport   MOSUNNY   61  36  39 W20G32    29.69R
Seattle        CLOUDY    43  31  62 S3        30.47F
Charlotte      PTSUNNY   54  28  36 W12       29.68F
Dallas DFW     SUNNY     56  24  29 NW14G21   30.32F
Dallas Love    SUNNY     55  25  31 N14G20    30.34F
Philladelphia  CLOUDY    45  31  58 NW13G20   29.47F
Wash National  CLOUDY    48  30  49 NW20G25   29.53R
Baltimore      PTSUNNY   45  28  51 W18G26    29.51R
Miami          MOSUNNY   72  54  53 SW15      29.97F
Detroit        PTSUNNY   20   4  50 NW18G33   29.86R WCI   5
Newark         CLOUDY    45  34  65 W9        29.44F
Laguardia      CLOUDY    45  35  68 NW9       29.43S
J F K          CLOUDY    46  35  65 W16       29.44S
Boston Logan   CLOUDY    45  42  89 SE15      29.43F
Ft. Lauderdale MOSUNNY   71  54  54 W14G24    29.95F
Chicago O`Hare MOSUNNY   22   8  55 NW16      30.03F WCI   8
Chicago Midway MOSUNNY   23   8  52 NW14G21   30.04F WCI  11
Houston Bush   MOSUNNY   64  27  24 N9        30.25F
Houston Hobby  SUNNY     62  31  31 NW10      30.24F
Nashville      MOSUNNY   42  16  34 N16G28    30.07R
Atlanta        MOSUNNY   48  32  53 NW15G29   29.92F

$$

GAZ044-118-TXZ119-213-NCZ071-DCZ001-MDZ014-506-PAZ021-071-NJZ106-
NYZ176-178-MAZ106-OHZ011-021-055-MIZ076-KYZ091-ILZ014-INZ047-
MNZ060-ONZ431-122100-

...Gateway Observations for Savannah International...

CITY           SKY/WX    TMP DP  RH WIND       PRES   REMARKS
Savannah Arpt  MOSUNNY   63  36  36 W22G36    29.77R
Atlanta        MOSUNNY   48  32  53 NW15G29   29.92F
Charlotte      PTSUNNY   54  28  36 W12       29.68F
Dallas DFW     SUNNY     56  24  29 NW14G21   30.32F
Houston Bush   MOSUNNY   64  27  24 N9        30.25F
Wash National  CLOUDY    48  30  49 NW20G25   29.53R
Wash Dulles    CLOUDY    43  29  57 NW21G30   29.54R
Baltimore      PTSUNNY   45  28  51 W18G26    29.51R
Philadelphia   CLOUDY    45  31  58 NW13G20   29.47F
Newark         CLOUDY    45  34  65 W9        29.44F
Laguardia      CLOUDY    45  35  68 NW9       29.43S
J F K          CLOUDY    46  35  65 W16       29.44S
Boston         CLOUDY    45  42  89 SE15      29.43F
Pittsburg      CLOUDY    24  12  60 NW17      29.71R WCI  11
Akron          FLURRIES  20   9  62 NW22      29.77R WCI   3
Cleveland      CLOUDY    21   6  52 NW21G29   29.83S WCI   5
Cincinnati     CLOUDY    27  12  53 NW20G29   29.94S WCI  13
Columbus       PTSUNNY   26   8  45 NW15G23   29.88R WCI  14
Detroit        PTSUNNY   20   4  50 NW18G33   29.86R WCI   5
Chicago O`Hare MOSUNNY   22   8  55 NW16      30.03F WCI   8
Minneapolis    FLURRIES  18  11  74 S8        30.04F WCI   8
Indianapolis   MOSUNNY   27   8  44 NW18G30   30.01F WCI  14
Toronto Canada FLURRIES  19  10  68 W22G28    29.59R WCI   3

$$




USA.gov is the U.S. government's official web portal to all federal, state and local government web resources and services.